Overview Statistics Trail Chart Weather Telemetry Raw packets
 

This is the latest recevied weather packets stored in our database for station/object DL0OHA-13. If no packets are shown the sender has not sent any weather packets the latest 10 day(s).

<< 1 2 3 4 5 6 7 >>
Time Temp. Humidity Pressure Rain* Wind** Luminosity Snow
1788620462 19.44° C 52% 1018.3 hPa 0 mm - 0 W/m² -
1788619862 19.44° C 52% 1018.3 hPa 0 mm - 0 W/m² -
1788619263 19.44° C 52% 1018.2 hPa 0 mm - 0 W/m² -
1788618662 18.89° C 52% 1018.2 hPa 0 mm - 0 W/m² -
1788618062 18.89° C 53% 1018.2 hPa 0 mm - 0 W/m² -
1788617462 18.89° C 53% 1018.1 hPa 0 mm - 0 W/m² -
1788616862 19.44° C 53% 1018 hPa 0 mm - 0 W/m² -
1788616261 19.44° C 53% 1018 hPa 0 mm - 0 W/m² -
1788615669 19.44° C 52% 1017.7 hPa 0 mm - 0 W/m² -
1788615061 19.44° C 53% 1017.6 hPa 0 mm - 0 W/m² -
1788614461 19.44° C 52% 1017.5 hPa 0 mm - 0 W/m² -
1788613866 19.44° C 52% 1017.5 hPa 0 mm - 0 W/m² -
1788613266 20° C 51% 1017.4 hPa 0 mm - 0 W/m² -
1788612666 20° C 51% 1017.2 hPa 0 mm - 0 W/m² -
1788612066 20° C 51% 1017.1 hPa 0 mm - 0 W/m² -
1788611468 20° C 51% 1017.1 hPa 0 mm - 0 W/m² -
1788610865 20° C 51% 1017.2 hPa 0 mm - 0 W/m² -
1788610266 19.44° C 50% 1017.1 hPa 0 mm - 0 W/m² -
1788609665 19.44° C 51% 1017.3 hPa 0 mm - 0 W/m² -
1788609065 18.89° C 51% 1017.4 hPa 0 mm - 0 W/m² -
1788608465 18.89° C 51% 1017.4 hPa 0 mm - 0 W/m² -
1788607865 18.33° C 51% 1017.4 hPa 0 mm - 0 W/m² -
1788607265 18.89° C 50% 1017.3 hPa 0 mm - 0 W/m² -
1788606665 18.89° C 50% 1017.2 hPa 0 mm - 0 W/m² -
1788606079 18.33° C 50% 1017.2 hPa 0 mm - 0 W/m² -

* Rain latest hour (hover to see other rain measurements)
** Current wind speed in m/s (hover to see current wind gust speed)